Regional Weather Roundup
Issued by NWS

Home | Current Version | Previous Version | Text Only | Print | Product List | Glossary Off
Versions: 1 2 3 4 5 6 7 8 9 10 11 12 13 14 15 16 17 18 19 20 21 22 23 24 25 26 27 28 29 30 31 32 33 34 35 36 37 38 39 40 41 42 43 44 45 46 47 48 49 50

000
ASUS43 KFSD 010710
RWRSD

WEATHER ROUNDUP FOR SOUTH DAKOTA
NATIONAL WEATHER SERVICE SIOUX FALLS SD
200 AM CDT SUN MAY 01 2016

NOTE: "FAIR" INDICATES FEW OR NO CLOUDS BELOW 12,000 FEET WITH NO
SIGNIFICANT WEATHER AND/OR OBSTRUCTIONS TO VISIBILITY.


SDZ001>005-009-010-012>017-010800-
NORTHWEST AND NORTH CENTRAL SOUTH DAKOTA

CITY           SKY/WX    TMP DP  RH WIND       PRES   REMARKS
BUFFALO          N/A     41  26  55 N6        30.22S
FAITH            N/A     35  27  72 N8        30.25R WCI  29
MOBRIDGE       CLEAR     45  30  55 NE13      30.20S
$$

SDZ012>016-024>037-041>051-057-063-072>074-010800-
SOUTHWEST AND SOUTH CENTRAL SOUTH DAKOTA

CITY           SKY/WX    TMP DP  RH WIND       PRES   REMARKS
RAPID CTY ARPT CLOUDY    39  32  76 N9        30.24S
PIERRE         CLOUDY    39  32  76 NE10      30.17R
CUSTER         CLOUDY    34  24  67 N8G18     30.21R WCI  27
ELLSWORTH AFB  CLOUDY    42  32  66 N12       30.24S
PHILIP         CLOUDY    39  32  76 N12       30.20R
PINE RIDGE     CLOUDY    38  36  92 NW3       30.21R
WINNER         CLOUDY    43  40  89 N8        30.16R
$$

SDZ004>011-016>023-039-040-010800-
NORTHEAST SOUTH DAKOTA

CITY           SKY/WX    TMP DP  RH WIND       PRES   REMARKS
ABERDEEN       CLEAR     39  31  72 NE6       30.20R
WATERTOWN      PTCLDY    41  29  62 NE13      30.14R
BROOKINGS      CLOUDY    42  32  67 NE9       30.11R
SISSETON         N/A     33  29  85 NW5       30.20R WCI  29
$$

SDZ017-020-022-023-036>040-048>070-010800-
SOUTHEAST SOUTH DAKOTA

CITY           SKY/WX    TMP DP  RH WIND       PRES   REMARKS
SIOUX FALLS    LGT RAIN  44  40  85 NE12      30.09S
HURON          CLOUDY    42  34  73 NE9       30.15R
CHAMBERLAIN    CLOUDY    42  42  99 NW5       30.15S
MITCHELL       CLOUDY    44  43  96 NW7       30.13R
YANKTON        CLOUDY    45  39  81 NE18G24   30.06S
$$

ABBREVIATIONS USED IN REMARKS
   TC - TEMPERATURE IN CELSIUS
  WCI - WIND CHILL INDEX
   HX - HEAT INDEX
  VSB - VISIBILITY





USA.gov is the U.S. government's official web portal to all federal, state and local government web resources and services.